Location: Newark
(13.6797°N, 8.5297°E)
Time: 15:36:59
(UTC+00:00)

Altair - Pass Details

Date: 01 February 2020
Orbit: 1502 x 1682 km, 47.2° (Epoch: 24 February)

Event Time Altitude Azimuth Distance (km) Brightness Sun altitude
Rises 13:16:15 0° 324° (NW) 4,922 10.0 51.0°
Reaches altitude 10° 13:19:34 10° 329° (NNW) 3,923 9.6 50.5°
Maximum altitude 13:29:23 56° 46° (NE) 1,890 8.3 48.9°
Drops below altitude 10° 13:38:52 10° 122° (ESE) 3,803 9.6 47.3°
Sets 13:42:00 0° 126° (SE) 4,763 10.0 46.8°
